When you browse on this site, cookies collect data to enhance your experience and personalize the content and advertising you see.
Visit our Privacy Policy to learn more. By continuing to use the site, you agree to this use of cookies and data.
  • In Romania
  • List of Countries
  • For 7 days
  • Water Temperature
  • Satellite Maps
  • Weather Map
  • Weather Widgets
  • user-avatar
    Login

    Hourly Weather Birao

    Today, 20 May, Monday

    Time Temperature Precipitation Wind Pressure Humidity
    00:00 +34°C° 0 mm 1 mps 715 mmHg 30%
    01:00 +34°C° 0 mm 1 mps 715 mmHg 31%
    02:00 +33°C° 0 mm 1 mps 715 mmHg 32%
    03:00 +34°C° 0 mm 2 mps 715 mmHg 37%
    04:00 +32°C° 0 mm 2 mps 715 mmHg 42%
    05:00 +31°C° 0 mm 3 mps 715 mmHg 48%
    06:00 +33°C° 0 mm 3 mps 716 mmHg 46%
    07:00 +34°C° 0 mm 3 mps 716 mmHg 44%
    08:00 +35°C° 0 mm 3 mps 717 mmHg 43%
    09:00 +37°C° 0 mm 3 mps 717 mmHg 38%
    10:00 +38°C° 0 mm 4 mps 717 mmHg 34%
    11:00 +41°C° 0 mm 5 mps 717 mmHg 30%
    12:00 +43°C° 0 mm 4 mps 717 mmHg 26%
    13:00 +45°C° 0 mm 3 mps 716 mmHg 22%
    14:00 +46°C° 0 mm 2 mps 716 mmHg 18%
    15:00 +45°C° 0 mm 2 mps 715 mmHg 19%
    16:00 +43°C° 0 mm 2 mps 715 mmHg 20%
    17:00 +42°C° 0 mm 2 mps 714 mmHg 21%
    18:00 +39°C° 0.8 mm 3 mps 714 mmHg 27%
    19:00 +37°C° 0.8 mm 4 mps 714 mmHg 33%
    20:00 +35°C° 0.8 mm 5 mps 714 mmHg 39%
    21:00 +34°C° 0.3 mm 5 mps 715 mmHg 40%
    22:00 +34°C° 0.3 mm 4 mps 715 mmHg 42%
    23:00 +34°C° 0.3 mm 4 mps 716 mmHg 43%

    Tomorrow, 21 May, Tuesday

    Time Temperature Precipitation Wind Pressure Humidity
    00:00 +33°C° 0.1 mm 4 mps 716 mmHg 48%
    01:00 +32°C° 0.1 mm 4 mps 716 mmHg 54%
    02:00 +32°C° 0.1 mm 4 mps 716 mmHg 59%
    03:00 +30°C° 0 mm 3 mps 716 mmHg 60%
    04:00 +30°C° 0 mm 2 mps 716 mmHg 60%
    05:00 +29°C° 0 mm 1 mps 716 mmHg 61%
    06:00 +30°C° 0 mm 1 mps 717 mmHg 59%
    07:00 +30°C° 0 mm 1 mps 717 mmHg 56%
    08:00 +31°C° 0 mm 1 mps 718 mmHg 54%
    09:00 +34°C° 0 mm 2 mps 718 mmHg 47%
    10:00 +36°C° 0 mm 2 mps 719 mmHg 41%
    11:00 +38°C° 0 mm 2 mps 719 mmHg 34%
    12:00 +40°C° 0 mm 2 mps 718 mmHg 30%
    13:00 +42°C° 0 mm 1 mps 718 mmHg 27%
    14:00 +44°C° 0 mm 1 mps 717 mmHg 23%
    15:00 +42°C° 0 mm 1 mps 717 mmHg 24%
    16:00 +41°C° 0 mm 1 mps 716 mmHg 25%
    17:00 +40°C° 0 mm 1 mps 715 mmHg 26%
    18:00 +39°C° 0.1 mm 1 mps 716 mmHg 28%
    19:00 +37°C° 0.1 mm 1 mps 716 mmHg 30%
    20:00 +36°C° 0.1 mm 1 mps 716 mmHg 33%
    21:00 +36°C° 0.2 mm 2 mps 716 mmHg 36%
    22:00 +35°C° 0.2 mm 2 mps 717 mmHg 40%
    23:00 +34°C° 0.2 mm 2 mps 717 mmHg 43%

    Day after tomorrow, 22 May, Wednesday

    Time Temperature Precipitation Wind Pressure Humidity
    00:00 +32°C° 0 mm 2 mps 716 mmHg 45%
    01:00 +32°C° 0 mm 2 mps 716 mmHg 48%
    02:00 +31°C° 0 mm 2 mps 716 mmHg 50%
    03:00 +30°C° 0 mm 1 mps 716 mmHg 51%
    04:00 +30°C° 0 mm 1 mps 716 mmHg 52%
    05:00 +30°C° 0 mm 1 mps 716 mmHg 53%
    06:00 +31°C° 0 mm 2 mps 717 mmHg 50%
    07:00 +32°C° 0 mm 2 mps 717 mmHg 47%
    08:00 +33°C° 0 mm 3 mps 718 mmHg 44%
    09:00 +36°C° 0 mm 2 mps 718 mmHg 39%
    10:00 +38°C° 0 mm 2 mps 718 mmHg 33%
    11:00 +40°C° 0 mm 2 mps 719 mmHg 28%
    12:00 +42°C° 0 mm 2 mps 718 mmHg 24%
    13:00 +43°C° 0 mm 1 mps 717 mmHg 21%
    14:00 +45°C° 0 mm 1 mps 717 mmHg 18%
    15:00 +44°C° 0 mm 1 mps 716 mmHg 19%
    16:00 +43°C° 0 mm 1 mps 716 mmHg 19%
    17:00 +42°C° 0 mm 1 mps 715 mmHg 20%
    18:00 +40°C° 0 mm 1 mps 716 mmHg 23%
    19:00 +39°C° 0 mm 1 mps 716 mmHg 26%
    20:00 +36°C° 0 mm 1 mps 716 mmHg 30%
    21:00 +37°C° 0 mm 2 mps 716 mmHg 32%
    22:00 +36°C° 0 mm 2 mps 716 mmHg 34%
    23:00 +35°C° 0 mm 2 mps 716 mmHg 37%

    23 May, Thursday

    Time Temperature Precipitation Wind Pressure Humidity
    00:00 +35°C° 0 mm 2 mps 716 mmHg 39%
    01:00 +34°C° 0 mm 2 mps 716 mmHg 41%
    02:00 +32°C° 0 mm 2 mps 715 mmHg 44%
    03:00 +32°C° 0 mm 2 mps 715 mmHg 45%
    04:00 +31°C° 0 mm 2 mps 715 mmHg 46%
    05:00 +31°C° 0 mm 2 mps 715 mmHg 47%
    06:00 +32°C° 0 mm 2 mps 716 mmHg 47%
    07:00 +33°C° 0 mm 3 mps 717 mmHg 46%
    08:00 +34°C° 0 mm 3 mps 717 mmHg 45%
    09:00 +36°C° 0 mm 3 mps 717 mmHg 40%
    10:00 +38°C° 0 mm 3 mps 718 mmHg 34%
    11:00 +42°C° 0 mm 3 mps 718 mmHg 29%
    12:00 +42°C° 0 mm 3 mps 717 mmHg 26%
    13:00 +42°C° 0 mm 2 mps 716 mmHg 24%
    14:00 +42°C° 0 mm 2 mps 715 mmHg 22%
    15:00 +41°C° 0 mm 2 mps 715 mmHg 23%
    16:00 +41°C° 0 mm 2 mps 714 mmHg 25%
    17:00 +40°C° 0 mm 2 mps 714 mmHg 26%
    18:00 +39°C° 0 mm 2 mps 714 mmHg 29%
    19:00 +38°C° 0 mm 2 mps 715 mmHg 32%
    20:00 +37°C° 0 mm 3 mps 715 mmHg 35%
    21:00 +36°C° 0 mm 3 mps 715 mmHg 40%
    22:00 +35°C° 0 mm 4 mps 715 mmHg 44%
    23:00 +34°C° 0 mm 4 mps 716 mmHg 49%

    24 May, Friday

    Time Temperature Precipitation Wind Pressure Humidity
    00:00 +33°C° 0 mm 4 mps 715 mmHg 53%
    01:00 +32°C° 0 mm 4 mps 715 mmHg 58%
    02:00 +30°C° 0 mm 4 mps 715 mmHg 62%
    03:00 +30°C° 0 mm 3 mps 715 mmHg 62%
    04:00 +29°C° 0 mm 3 mps 715 mmHg 62%
    05:00 +29°C° 0 mm 3 mps 715 mmHg 62%
    06:00 +29°C° 0 mm 3 mps 716 mmHg 59%
    07:00 +30°C° 0 mm 3 mps 717 mmHg 57%
    08:00 +30°C° 0 mm 4 mps 717 mmHg 55%
    09:00 +33°C° 0 mm 4 mps 717 mmHg 48%
    10:00 +35°C° 0 mm 3 mps 717 mmHg 41%
    11:00 +37°C° 0 mm 3 mps 717 mmHg 35%
    12:00 +39°C° 0 mm 3 mps 717 mmHg 31%
    13:00 +40°C° 0 mm 3 mps 716 mmHg 28%
    14:00 +43°C° 0 mm 3 mps 715 mmHg 25%
    15:00 +42°C° 0 mm 3 mps 715 mmHg 24%
    16:00 +42°C° 0 mm 3 mps 714 mmHg 24%
    17:00 +42°C° 0 mm 3 mps 714 mmHg 23%
    18:00 +40°C° 0 mm 3 mps 714 mmHg 27%
    19:00 +38°C° 0 mm 3 mps 715 mmHg 30%
    20:00 +37°C° 0 mm 3 mps 716 mmHg 34%
    21:00 +35°C° 0 mm 3 mps 716 mmHg 40%
    22:00 +34°C° 0 mm 3 mps 716 mmHg 45%
    23:00 +33°C° 0 mm 3 mps 715 mmHg 50%

    25 May, Saturday

    Time Temperature Precipitation Wind Pressure Humidity
    00:00 +33°C° 0 mm 3 mps 715 mmHg 49%
    01:00 +33°C° 0 mm 3 mps 715 mmHg 48%
    02:00 +32°C° 0 mm 2 mps 715 mmHg 46%
    03:00 +31°C° 0 mm 2 mps 715 mmHg 47%
    04:00 +31°C° 0 mm 2 mps 715 mmHg 47%
    05:00 +31°C° 0 mm 2 mps 715 mmHg 47%
    06:00 +31°C° 0 mm 2 mps 716 mmHg 45%
    07:00 +32°C° 0 mm 2 mps 716 mmHg 44%
    08:00 +34°C° 0 mm 2 mps 717 mmHg 42%
    09:00 +36°C° 0 mm 2 mps 717 mmHg 36%
    10:00 +38°C° 0 mm 2 mps 717 mmHg 31%
    11:00 +40°C° 0 mm 2 mps 718 mmHg 26%
    12:00 +42°C° 0 mm 2 mps 717 mmHg 24%
    13:00 +43°C° 0 mm 2 mps 716 mmHg 21%
    14:00 +45°C° 0 mm 1 mps 716 mmHg 19%
    15:00 +43°C° 0 mm 2 mps 715 mmHg 22%
    16:00 +41°C° 0 mm 2 mps 715 mmHg 24%
    17:00 +40°C° 0 mm 2 mps 714 mmHg 27%
    18:00 +39°C° 0.1 mm 3 mps 715 mmHg 30%
    19:00 +38°C° 0.1 mm 3 mps 715 mmHg 34%
    20:00 +37°C° 0.1 mm 3 mps 716 mmHg 38%
    21:00 +35°C° 0.9 mm 3 mps 716 mmHg 46%
    22:00 +33°C° 0.9 mm 3 mps 716 mmHg 53%
    23:00 +31°C° 0.9 mm 2 mps 717 mmHg 61%
    Show more